This demonstration page uses our WeatherBlox Daily Observations layout. Learn more.

Left ArrowRight Arrow

38.88101, -77.10428

Hourly Observations for February 17, 2021

Temp ( °F °C ) Dew Point ( °F °C ) Humidity (%) Winds ( mph kmh ) Pressure ( in mb ) Visibility ( mi km ) Precip ( " mm )
12:52 am 00:52 Mostly Cloudy 28 -2.2 11 -11.7 49 49 NW 15 24 30.22 1023 10 16 0.00 0.00
1:52 am 01:52 Mostly Cloudy 28 -2.2 11 -11.7 49 49 NW 12 19 30.23 1024 10 16 0.00 0.00
2:52 am 02:52 Mostly Clear 27 -2.8 11 -11.7 51 51 NNW 12 19 30.24 1024 10 16 0.00 0.00
3:52 am 03:52 Partly Cloudy 27 -2.8 10 -12.2 49 49 NNW 13 20 30.28 1026 10 16 0.00 0.00
4:52 am 04:52 Mostly Cloudy 27 -2.8 11 -11.7 51 51 NW 12 19 30.32 1027 10 16 0.00 0.00
5:52 am 05:52 Cloudy 26 -3.3 12 -11.1 55 55 NNW 12 19 30.35 1028 10 16 0.00 0.00
6:52 am 06:52 Mostly Cloudy 26 -3.3 12 -11.1 55 55 NNW 15 24 30.37 1028 10 16 0.00 0.00
7:52 am 07:52 Mostly Cloudy 26 -3.3 13 -10.6 57 57 NNW 15 24 30.42 1030 10 16 0.00 0.00
8:52 am 08:52 Mostly Cloudy 29 -1.7 10 -12.2 45 45 NNW 14 22 30.43 1031 10 16 0.00 0.00
9:52 am 09:52 Mostly Cloudy 31 -0.6 10 -12.2 42 42 NNW 8 13 30.45 1031 10 16 0.00 0.00
10:52 am 10:52 Mostly Cloudy 31 -0.6 11 -11.7 43 43 NNW 13 20 30.46 1031 10 16 0.00 0.00
11:52 am 11:52 Mostly Cloudy 32 0 10 -12.2 40 40 NW 3 6 30.45 1031 10 16 0.00 0.00
12:52 pm 12:52 Mostly Cloudy 34 1.1 12 -11.1 40 40 NNW 7 11 30.41 1030 10 16 0.00 0.00
1:52 pm 13:52 Partly Cloudy 35 1.7 11 -11.7 37 37 Calm 30.41 1030 10 16 0.00 0.00
2:52 pm 14:52 Partly Cloudy 37 2.8 12 -11.1 36 36 WSW 3 6 30.40 1030 10 16 0.00 0.00
3:52 pm 15:52 Partly Cloudy 37 2.8 13 -10.6 37 37 Calm 30.39 1029 10 16 0.00 0.00
4:52 pm 16:52 Partly Cloudy 36 2.2 12 -11.1 37 37 Calm 30.40 1029 10 16 0.00 0.00
5:52 pm 17:52 Mostly Cloudy 35 1.7 12 -11.1 38 38 Calm 30.41 1030 10 16 0.00 0.00
6:52 pm 18:52 Mostly Cloudy 33 0.6 16 -8.9 49 49 ESE 7 11 30.45 1031 10 16 0.00 0.00
7:52 pm 19:52 Mostly Cloudy 31 -0.6 14 -10 49 49 E 6 9 30.45 1031 10 16 0.00 0.00
8:52 pm 20:52 Mostly Cloudy 31 -0.6 12 -11.1 45 45 NE 6 9 30.46 1031 10 16 0.00 0.00
9:52 pm 21:52 Mostly Cloudy 31 -0.6 13 -10.6 47 47 ENE 6 9 30.46 1032 10 16 0.00 0.00
10:52 pm 22:52 Mostly Cloudy 30 -1.1 15 -9.4 54 54 NE 8 13 30.43 1031 10 16 0.00 0.00
11:52 pm 23:52 Mostly Cloudy 30 -1.1 15 -9.4 54 54 NE 9 15 30.42 1030 10 16 0.00 0.00

Powered by AerisWeather